Regional Weather Roundup
Issued by NWS

Home | Current Version | Previous Version | Graphics & Text | Print | Product List | Glossary On
Versions: 1 2 3 4 5 6 7 8 9 10 11 12 13 14 15 16 17 18 19 20 21 22 23 24 25 26 27 28 29 30 31 32 33 34 35 36 37 38 39 40 41 42 43 44 45 46 47 48 49 50
000
ASUS43 KMPX 030010
RWRMN
WEATHER ROUNDUP FOR MINNESOTA
NATIONAL WEATHER SERVICE TWIN CITIES/CHANHASSEN MN
600 PM CST FRI DEC 02 2016


NOTE: "FAIR" INDICATES FEW OR NO CLOUDS BELOW 12,000 FEET WITH NO
SIGNIFICANT WEATHER AND/OR OBSTRUCTIONS TO VISIBILITY. N/A MEANS
CURRENT SKY AND/OR WEATHER CONDITIONS ARE NOT AVAILABLE.

MNZ060>063-068>070-030100-
   Twin Cities Metro

CITY           SKY/WX    TMP DP  RH WIND       PRES   REMARKS
TWIN CITIES    CLOUDY    32  23  69 W9        30.29R WCI  24
6HR MIN TEMP:  32; 6HR MAX TEMP:  33;

ST PAUL        CLOUDY    32  24  72 W6        30.30R WCI  26
CRYSTAL        CLOUDY    32  23  69 NW7       30.28R WCI  26
BLAINE         CLOUDY    32  27  80 NW5       30.28R WCI  27
LAKEVILLE      CLOUDY    28  23  80 W9        30.29S WCI  20
EDEN PRAIRIE   CLOUDY    31  23  72 W6        30.28R WCI  25
6HR MIN TEMP:  31; 6HR MAX TEMP:  34;

SOUTH ST PAUL  CLOUDY    32  24  72 SW3       30.29R
LAKE ELMO      CLOUDY    32  28  86 NW3       30.29R
$$
MNZ001>005-007-008-013>017-022>024-027-028-030100-
   Northwest Minnesota

CITY           SKY/WX    TMP DP  RH WIND       PRES   REMARKS
BEMIDJI        CLOUDY    24  20  83 SW3       30.24R
HALLOCK        CLOUDY    28  27  93 CALM      30.26S
ROSEAU         CLOUDY    27  21  80 W3        30.25R
WARROAD        CLOUDY    25  21  86 CALM      30.25R
THIEF RVR FALL CLOUDY    28  23  81 NW5       30.26R WCI  23
CROOKSTON      CLOUDY    30  23  74 NW7       30.28R WCI  23
FOSSTON        CLOUDY    25  19  80 W3        30.26R
DETROIT LAKES  CLOUDY    28  23  80 NW8       30.27S WCI  20
MOORHEAD       CLOUDY    28  19  69 CALM      30.30S
PARK RAPIDS    CLOUDY    25  18  74 NW9       30.25R WCI  15
$$
MNZ006-009>011-018-025>026-030100-
   North Central Minnesota

CITY           SKY/WX    TMP DP  RH WIND       PRES   REMARKS
BAUDETTE       CLOUDY    24  20  84 W3        30.23S
FLAG ISLAND    CLOUDY    21  18  86 W8        30.24R WCI  12
INTL FALLS     CLOUDY    23  20  88 W5        30.23R WCI  17
6HR MIN TEMP:  23; 6HR MAX TEMP:  26;

WASKISH        CLOUDY    27  23  86 W3        30.24S
BIG FORK       CLOUDY    25  21  86 CALM      30.23S
LONGVILLE      CLOUDY    25  21  86 W3        30.25R
GRAND RAPIDS   CLOUDY    25  21  85 W6        30.25R WCI  18
CRANE LAKE     CLOUDY    25  21  86 CALM      30.24R
ORR            CLOUDY    25  21  86 CALM      30.20R
COOK           CLOUDY    25  25 100 W6        30.22S WCI  18
$$
MNZ012-019>021-037-030100-
   Northeast Minnesota

CITY           SKY/WX    TMP DP  RH WIND       PRES   REMARKS
DULUTH         CLOUDY    29  24  82 NW6       30.21R WCI  23
6HR MIN TEMP:  27; 6HR MAX TEMP:  29;

ELY            CLOUDY    27  25  93 CALM      30.20S
HIBBING        CLOUDY    25  22  88 NW6       30.21S WCI  18
EVELETH        CLOUDY    28  24  86 W6        30.22S WCI  21
DULUTH HARBOR  CLOUDY    32  27  80 CALM      30.26R
TWO HARBORS    CLOUDY    30  25  80 CALM      30.20R
SILVER BAY     CLOUDY    28  25  86 CALM      30.19S
GRAND MARAIS     N/A     32  25  75 CALM      30.22R
G MARAIS ARPRT CLOUDY    25  19  80 NW5       30.16S WCI  19
$$
MNZ029>031-032-039>041-046>048-054>057-064-030100-
   West Central Minnesota

CITY           SKY/WX    TMP DP  RH WIND       PRES   REMARKS
FERGUS FALLS   CLOUDY    27  19  74 NW7       30.33S WCI  19
MORRIS         CLOUDY    27  19  74 W8        30.29S WCI  18
ALEXANDRIA     CLOUDY    26  21  81 W9        30.28R WCI  17
ELBOW LAKE     CLOUDY    26  20  79 CALM      30.30R
WADENA         CLOUDY    25  19  80 W3        30.27R
GLENWOOD       CLOUDY    27  21  80 W8        30.28S WCI  18
APPLETON       CLOUDY    28  21  74 NW3       30.30S
BENSON         CLOUDY    28  19  69 NW7       30.30S WCI  21
ORTONVILLE     CLOUDY    28  21  74 CALM      30.30S
MADISON        CLOUDY    30  25  80 N7        30.30S WCI  23
WILLMAR        CLOUDY    28  23  80 CALM      30.31R
$$
MNZ033>034-036-042>043-049>051-058-059-030100-
   Central Minnesota

CITY           SKY/WX    TMP DP  RH WIND       PRES   REMARKS
ST CLOUD       CLOUDY    29  23  78 NW7       30.28R WCI  22
6HR MIN TEMP:  29; 6HR MAX TEMP:  30;

PAYNESVILLE    CLOUDY    28  24  82 W6        30.29S WCI  22
AITKIN         CLOUDY    28  21  74 CALM      30.24R
PINE RIVER     CLOUDY    25  21  86 CALM      30.28S
BRAINERD       CLOUDY    25  21  85 NW6       30.27R WCI  18
STAPLES        CLOUDY    25  21  86 NW8       30.27R WCI  16
LONG PRAIRIE   CLOUDY    27  21  80 W3        30.27S
LITTLE FALLS   CLOUDY    28  21  74 NW7       30.28R WCI  21
LITCHFIELD     CLOUDY    30  25  80 W6        30.29S WCI  24
BUFFALO        CLOUDY    31  25  80 W6        30.29S WCI  25
MAPLE LAKE     CLOUDY    31  26  81 NW7       30.29R WCI  25
$$
MNZ037-044-045-052-053-030100-
   East Central Minnesota

CITY           SKY/WX    TMP DP  RH WIND       PRES   REMARKS
PRINCETON      CLOUDY    30  25  80 W6        30.28S WCI  24
MORA           CLOUDY    30  23  74 W5        30.29R WCI  25
CAMBRIDGE      CLOUDY    30  21  69 W3        30.27R
RUSH CITY      CLOUDY    28  25  86 W5        30.28R WCI  23
MOOSE LAKE     CLOUDY    30  25  80 W6        30.23R WCI  24
HINCKLEY       CLOUDY    30  27  86 W7        30.27R WCI  23
CLOQUET        CLOUDY    28  23  80 W3        30.22R
MCGREGOR       CLOUDY    28  25  86 W3        30.24S
$$
MNZ071>073-080-081-089-090-097-098-030100-
   Southwest Minnesota

CITY           SKY/WX    TMP DP  RH WIND       PRES   REMARKS
MONTEVIDEO     CLOUDY    28  27  93 CALM      30.32S
GRANITE FALLS  CLOUDY    30  24  78 NW5       30.32S WCI  25
CANBY          CLOUDY    29  21  72 CALM      30.31S
MARSHALL       CLOUDY    29  23  78 N6        30.30S WCI  23
REDWOOD FALLS  CLOUDY    29  20  69 NW3       30.30R
OLIVIA         MOCLDY    30  23  74 NW7       30.29S WCI  23
PIPESTONE      CLOUDY    28  21  74 NW7       30.27S WCI  21
WINDOM         CLOUDY    30  25  80 CALM      30.28S
WORTHINGTON    CLOUDY    30  24  78 NW14      30.29R WCI  19
JACKSON        CLOUDY    30  23  74 NW3       30.28S
TRACY          CLOUDY    30  26  84 NW6       30.29S WCI  24
SLAYTON        CLOUDY    28  24  84 NW9       30.28S WCI  19
$$
MNZ065>067-074>077-082>085-091>093-030100-
   South Central Minnesota

CITY           SKY/WX    TMP DP  RH WIND       PRES   REMARKS
MANKATO        CLOUDY    29  21  72 W9        30.31R WCI  20
NEW ULM        CLOUDY    28  21  74 N7        30.30S WCI  21
ST JAMES       CLOUDY    30  25  80 NW7       30.31S WCI  23
FAIRMONT       CLOUDY    30  24  78 N6        30.29F WCI  24
GLENCOE        CLOUDY    31  26  82 W6        30.29S WCI  25
FARIBAULT      CLOUDY    28  21  74 W9        30.31R WCI  20
OWATONNA       CLOUDY    28  21  74 W8        30.29S WCI  20
WASECA         CLOUDY    30  25  80 W9        30.31R WCI  22
ALBERT LEA     CLOUDY    32  25  74 W3        30.28F
$$
MNZ078>079-086>088-094>096-030100-
   Southeast Minnesota

CITY           SKY/WX    TMP DP  RH WIND       PRES   REMARKS
ROCHESTER      CLOUDY    29  23  78 NW12      30.28S WCI  19
6HR MIN TEMP:  29; 6HR MAX TEMP:  31;

RED WING       CLOUDY    34  21  60 W6        30.28S WCI  29
STANTON        CLOUDY    32  23  70 SW8       30.29R WCI  24
DODGE CENTER   CLOUDY    28  21  74 W8        30.28R WCI  20
WINONA         CLOUDY    34  23  64 NW7       30.30S WCI  28
AUSTIN         CLOUDY    28  21  74 W10       30.28F WCI  19
PRESTON        CLOUDY    28  21  74 NW7       30.28S WCI  21
$$
ABBREVIATIONS USED IN REMARKS
   TC - TEMPERATURES IN CELSIUS
  WCI - WIND CHILL INDEX
   HX - HEAT INDEX
  VSB - VISIBILITY
$$




USA.gov is the U.S. government's official web portal to all federal, state and local government web resources and services.